Location: Arbon
(43.0005°N, 0.7472°E)
Time: 15:10:46
(UTC+00:00)

Envisat - Pass Details

Date: 01 November 2020
Orbit: 764 x 766 km, 98.1° (Epoch: 30 November)

Event Time Altitude Azimuth Distance (km) Brightness Sun altitude
Rises 05:33:38 0° 18° (NNE) 3,241 6.4 -11.1°
Reaches altitude 10° 05:36:02 10° 23° (NNE) 2,310 5.7 -10.7°
Maximum altitude 05:40:59 51° 99° (E) 963 4.1 -9.8°
Drops below altitude 10° 05:45:53 10° 175° (S) 2,293 5.7 -8.9°
Sets 05:48:15 0° 181° (S) 3,214 6.4 -8.5°
